Weather History for KSFF - November, 2012

Change the Weather History Date:

Sunday, November 18, 2012

  Actual Average Record
Temperature  
Mean Temperature 42 °F 36 °F  
Max Temperature 49 °F 43 °F 57 °F (2003)
Min Temperature 35 °F 30 °F 17 °F (2014)
Degree Days  
Heating Degree Days 23 29  
Month to date heating degree days 413 465  
Since 1 July heating degree days 972 1202  
Cooling Degree Days 0 0  
Month to date cooling degree days 0 0  
Year to date cooling degree days 509 406  
Moisture  
Dew Point 32 °F    
Average Humidity 68    
Maximum Humidity 85    
Minimum Humidity 50    
Precipitation  
Precipitation T in 0.08 in 0.43 in (2010)
Month to date precipitation 1.35 1.28  
Year to date precipitation 16.94 14.23  
Sea Level Pressure  
Sea Level Pressure 29.86 in    
Wind  
Wind Speed 7 mph (SSW)    
Max Wind Speed 23 mph    
Max Gust Speed 32 mph    
Visibility 10 miles    
Events Rain    
T = Trace of Precipitation, MM = Missing Value Source: NWS Daily Summary

Daily Weather History Graph

Daily Weather History Graph

Search for Another Location

Airport or City:

Trip Planner

Search our weather history database for the weather conditions in past years. The results will help you decide how hot, cold, wet, or windy it might be!

Date:

Astronomy

Nov. 18, 2012 Rise Set
Actual Time 6:59 AM PST 4:08 PM PST
Civil Twilight 6:25 AM PST 4:42 PM PST
Nautical Twilight 5:48 AM PST 5:20 PM PST
Astronomical Twilight 5:11 AM PST 5:57 PM PST
Moon 11:24 AM PST (11/18) 9:40 PM PST (11/18)
Length of Visible Light 10h 16m
Length of Day
9h 08m
Waxing Crescent, 31% of the Moon is Illuminated
Nov 18
Waxing Crescent
Nov 20
First Quarter
Nov 28
Full
Dec 6
Last Quarter
Dec 13
New

Hourly Weather History & Observations

Time (PST) Temp. Windchill Dew Point Humidity Pressure Visibility Wind Dir Wind Speed Gust Speed Precip Events Conditions
12:06 AM 41.0 °F 32.2 °F 35.6 °F 81% 29.72 in 10.0 mi SW 18.4 mph 26.5 mph 0.00 in Rain Light Rain
12:22 AM 39.2 °F 30.8 °F 35.6 °F 87% 29.71 in 10.0 mi SSW 15.0 mph 21.9 mph 0.00 in   Overcast
12:32 AM 39.2 °F 30.2 °F 33.8 °F 81% 29.73 in 10.0 mi SW 17.3 mph 23.0 mph 0.00 in   Overcast
12:48 AM 39.2 °F 31.2 °F 35.6 °F 87% 29.74 in 10.0 mi SW 13.8 mph - 0.00 in   Overcast
12:53 AM 39.9 °F 32.1 °F 34.0 °F 79% 29.74 in 10.0 mi SW 13.8 mph - 0.00 in   Overcast
1:53 AM 39.9 °F 32.1 °F 35.1 °F 83% 29.77 in 10.0 mi SW 13.8 mph - 0.00 in   Overcast
2:53 AM 39.9 °F 33.4 °F 34.0 °F 79% 29.81 in 10.0 mi SW 10.4 mph - N/A   Overcast
3:48 AM 39.2 °F 32.5 °F 33.8 °F 81% 29.82 in 10.0 mi SW 10.4 mph - N/A   Scattered Clouds
3:53 AM 37.9 °F 31.5 °F 32.0 °F 79% 29.84 in 10.0 mi WSW 9.2 mph - N/A   Partly Cloudy
4:53 AM 37.9 °F 33.5 °F 32.0 °F 79% 29.88 in 10.0 mi WSW 5.8 mph - N/A   Clear
5:53 AM 37.0 °F - 30.9 °F 79% 29.89 in 10.0 mi Calm Calm - N/A   Clear
6:53 AM 36.0 °F - 30.9 °F 82% 29.91 in 10.0 mi Calm Calm - N/A   Clear
7:53 AM 37.0 °F 34.5 °F 30.9 °F 79% 29.92 in 10.0 mi Variable 3.5 mph - N/A   Clear
8:53 AM 39.9 °F 34.5 °F 30.9 °F 70% 29.91 in 10.0 mi East 8.1 mph - N/A   Scattered Clouds
9:53 AM 44.1 °F 40.1 °F 30.0 °F 58% 29.93 in 10.0 mi SSW 6.9 mph - N/A   Partly Cloudy
10:53 AM 45.0 °F 42.6 °F 30.0 °F 56% 29.94 in 10.0 mi Variable 4.6 mph - N/A   Overcast
11:53 AM 46.0 °F 43.1 °F 30.9 °F 56% 29.93 in 10.0 mi South 5.8 mph - N/A   Overcast
12:53 PM 46.0 °F 43.1 °F 30.9 °F 56% 29.92 in 10.0 mi South 5.8 mph - N/A   Overcast
1:53 PM 48.0 °F - 30.9 °F 52% 29.91 in 10.0 mi South 9.2 mph - N/A   Overcast
2:53 PM 46.9 °F - 30.0 °F 52% 29.90 in 10.0 mi South 9.2 mph - N/A   Overcast
3:53 PM 46.0 °F 44.8 °F 30.9 °F 56% 29.91 in 10.0 mi Variable 3.5 mph - N/A   Overcast
4:53 PM 45.0 °F - 32.0 °F 60% 29.91 in 10.0 mi Calm Calm - N/A   Overcast
5:53 PM 45.0 °F 43.5 °F 30.0 °F 56% 29.91 in 10.0 mi Variable 3.5 mph - N/A   Overcast
6:53 PM 43.0 °F 41.3 °F 30.0 °F 60% 29.90 in 10.0 mi Variable 3.5 mph - N/A   Overcast
7:53 PM 42.1 °F - 30.9 °F 65% 29.88 in 10.0 mi Calm Calm - N/A   Clear
8:53 PM 43.0 °F 40.3 °F 30.0 °F 60% 29.87 in 10.0 mi Variable 4.6 mph - N/A   Clear
9:53 PM 45.0 °F 41.8 °F 28.9 °F 53% 29.86 in 10.0 mi SE 5.8 mph - N/A   Mostly Cloudy
10:53 PM 46.0 °F 39.3 °F 28.9 °F 51% 29.85 in 10.0 mi SE 16.1 mph 23.0 mph 0.00 in Rain Light Rain
11:53 PM 46.0 °F 40.2 °F 30.0 °F 54% 29.88 in 10.0 mi South 12.7 mph 19.6 mph 0.00 in Rain Light Rain